Regional Weather Roundup
Issued by NWS

Home | Current Version | Previous Version | Graphics & Text | Print | Product List | Glossary On
Versions: 1 2 3 4 5 6 7 8 9 10 11 12 13 14 15 16 17 18 19 20 21 22 23 24 25 26 27 28 29 30 31 32 33 34 35 36 37 38 39 40 41 42 43 44 45 46 47 48 49 50
000
ASUS44 KMEG 172100
RWRTN
TENNESSEE HOURLY STATE WEATHER ROUNDUP
NATIONAL WEATHER SERVICE MEMPHIS TN
400 PM CDT THU APR 17 2014

TNZ002-004-019-021-049-052-054-088>092-172200-
WEST TENNESSEE

CITY           SKY/WX    TMP DP  RH WIND       PRES   REMARKS
MEMPHIS INTL   PTSUNNY   69  38  32 S7        30.20F
NWS MEMPHIS      N/A     71 N/A N/A MISG        N/A
JACKSON        MOSUNNY   69  36  29 S5        30.23F
DYERSBURG      PTSUNNY   70  41  35 SW5       30.24F
UNION CITY     SUNNY     66  41  39 CALM      30.24S
LEXINGTON      SUNNY     70  36  28 VRB6      30.23F
$$

TNZ008-025-027-028-033-062-065-066-172200-
NORTH MIDDLE TENNESSEE

CITY           SKY/WX    TMP DP  RH WIND       PRES   REMARKS
NASHVILLE      PTSUNNY   67  31  26 S12       30.27F
CLARKSVILLE    SUNNY     67  37  33 E7        30.24F
COOKEVILLE     SUNNY     68  34  28 S8        30.26F
CROSSVILLE     SUNNY     62  27  26 SE8       30.29F
$$

TNZ061-075-076-078-094-096-097-172200-
SOUTH MIDDLE TENNESSEE

CITY           SKY/WX    TMP DP  RH WIND       PRES   REMARKS
TULLAHOMA      SUNNY     66  36  32 S9        30.28R
WINCHESTER     SUNNY     66  37  34 S10       30.28R
MCMINNVILLE    SUNNY     68  34  28 VRB6      30.29R
COLUMBIA       SUNNY     68  45  42 SE12      30.25S
$$

TNZ017-018-042-046-047-172200-
NORTHEAST TENNESSEE

CITY           SKY/WX    TMP DP  RH WIND       PRES   REMARKS
TRI CITIES     MOSUNNY   68  21  16 W5        30.30F
ELIZABETHTON   CLEAR     64  28  25 CALM      30.31S
$$

TNZ012-013-036-069-073-074-172200-
CENTRAL EAST TENNESSEE

CITY           SKY/WX    TMP DP  RH WIND       PRES   REMARKS
KNOXVILLE      MOSUNNY   67  34  29 NE6       30.27F
OAK RIDGE      SUNNY     68  26  20 VRB7      30.29F
$$

TNZ083-085-099-172200-
SOUTHEAST TENNESSEE

CITY           SKY/WX    TMP DP  RH WIND       PRES   REMARKS
CHATTANOOGA    PTSUNNY   67  37  33 SE5       30.30S
$$

SKY/WX REPORTED AS FAIR MEANS FEW OR NO CLOUDS BELOW
12 THOUSAND FEET.




USA.gov is the U.S. government's official web portal to all federal, state and local government web resources and services.